www.pogodaiklimat.ru

Погода и климат >> Архив погоды >> Россия >> Магаданская область >> Талая


ПОГОДА в Талае

  • Прогноз погоды в Талае
  • Монитор погоды в Талае
  • Климат города

АРХИВ ПОГОДЫ в Талае

Время (UTC), дата Ветер
(напр.,м/с)
 
Видим.   Явления Облачность Т
(С)
Тd
(С)
f
(%)
Тe
(С)
Тes
(С)
Комфортность P
(гПа)
Po
(гПа)
Тmin
(С)
Tmax
(С)
R
(мм)
R24
(мм)
S
(см)
21 15.10 С 1 20 км слабый снег 10/0
[As op]
-9.7 -11.1 89 -12 -12 1028.3 938.9 -9.7 0.2 40
00 16.10 СВ 2 20 км слабый снег 10/0
[As op]
-9.2 -11.0 87 -14 -13 1028.7 939.4 -9.7
03 16.10 СВ 2 10 км слабый снег 10/0
[As op]
-8.4 -11.8 76 -13 -12 1028.5 939.5
06 16.10 С 2 10 км снег 10/0
[]
-9.1 -12.6 76 -14 -14 1029.2 939.9
09 16.10 штиль 0 10 км слабый снег 10/0
[As op]
-9.9 -12.7 80 -10 -10 1030.2 940.5 -8.1 0.3
12 16.10 СВ 1 10 км слабый снег 10/0
[As op]
-10.6 -13.2 81 -13 -13 1030.2 940.3
15 16.10 В 1 10 км слабый снег 10/0
[As op]
-11.4 -13.8 82 -14 -14 1029.7 939.6
18 16.10 ЮЗ 1 50 км {снег} 10/0
[As op]
-13.0 -14.8 86 -15 -15 1029.3 938.7
21 16.10 штиль 0 50 км {снег} 10/0
[As op]
-15.8 -17.3 88 -16 -16 1029.6 938.1 -15.8 43
00 17.10 ЮЗ 1 20 км слабый снег 10/5 300 м
[Frnb As op]
-15.5 -17.5 85 -18 -18 1029.0 937.6 -16.0
03 17.10 штиль 0 50 км {снег} ясно -11.3 -16.7 64 -11 -9 1025.4 935.7
06 17.10 штиль 0 50 км {снег} ясно -12.6 -17.1 69 -13 -13 1024.3 934.3
09 17.10 штиль 0 50 км ясно -19.2 -21.2 84 -19 -19 1026.2 933.7 -8.0 0.0
12 17.10 штиль 0 50 км ясно -23.2 -25.3 83 -23 -23 1026.2 932.4
15 17.10 штиль 0 50 км ясно -25.2 -27.9 78 -25 -25 1025.3 930.9
18 17.10 штиль 0 50 км ясно -26.8 -29.8 76 -27 -27 1024.3 929.3
21 17.10 штиль 0 50 км ясно -27.6 -30.6 75 -28 -28 1023.7 928.5 -27.9 37
00 18.10 штиль 0 50 км ясно -17.9 -20.1 83 -18 -16 1018.7 927.4 -28.4
03 18.10 штиль 0 50 км 3/0
[Ci fib]
-10.5 -17.6 56 -11 -9 1014.5 926.0
06 18.10 В 1 50 км 9/0
[Ci fib]
-14.1 -18.6 69 -17 -17 1015.1 925.4
09 18.10 штиль 0 50 км 9/0
[Ci fib]
-20.5 -23.1 80 -21 -21 1017.6 925.5 -8.1
12 18.10 штиль 0 50 км 9/0
[Ci fib]
-21.9 -24.0 83 -22 -22 1018.4 925.7
15 18.10 штиль 0 50 км 10/0
[Ac und]
-19.2 -21.4 83 -19 -19 1016.9 925.3
18 18.10 штиль 0 10 км слабый снег 10/0
[Ac As]
-15.1 -17.6 81 -15 -15 1015.3 925.2
21 18.10 штиль 0 20 км слабый снег 10/0
[Ac As]
-13.6 -16.1 81 -14 -14 1015.0 925.5 -23.3 0.0 36
00 19.10 штиль 0 50 км {снег} 10/0
[Ac As]
-10.6 -15.0 70 -11 -10 1014.1 925.6
03 19.10 С 1 50 км {снег} 9/0
[Ac As]
-8.5 -14.8 60 -11 -10 1012.8 925.1
06 19.10 штиль 0 50 км 4/0
[Ac trans Ci fib]
-11.2 -14.8 75 -11 -11 1014.1 925.4
09 19.10 штиль 0 10 км слабый снег 10/0
[Ac As]
-11.6 -13.3 87 -12 -12 1015.0 926.1 -8.4 0.3
12 19.10 штиль 0 4000 м снег 10/0
[Ac As]
-11.6 -13.1 89 -12 -12 1015.0 926.1
15 19.10 штиль 0 4000 м снег 10/0
[Ac As]
-11.4 -12.9 89 -12 -12 1015.0 926.2
18 19.10 штиль 0 10 км слабый снег 10/0
[Ac As]
-11.3 -12.8 89 -11 -11 1014.5 925.8
21 19.10 штиль 0 10 км слабый снег 10/0
[Ac As]
-12.1 -13.7 88 -12 -12 1015.1 926.1 -12.7 5 43
00 20.10 штиль 0 4000 м слабый снег 10/0
[As op]
-10.1 -12.5 83 -10 -10 1015.0 926.6
03 20.10 ЮЗ 1 4000 м слабый снег 10/0
[As op]
-8.6 -11.8 78 -11 -10 1014.3 926.4
06 20.10 штиль 0 20 км слабый снег 10/0
[As trans]
-8.2 -10.9 81 -9 -9 1014.8 927.0
09 20.10 штиль 0 10 км слабый снег 10/0
[As op]
-9.8 -11.1 90 -10 -10 1017.0 928.5 -7.3 2
12 20.10 штиль 0 50 км в посл. час снег 10/0
[Ac und]
-10.2 -11.5 90 -11 -11 1018.2 929.5
15 20.10 штиль 0 50 км 10/0
[Ac und]
-9.7 -10.9 91 -10 -10 1018.7 930.1
18 20.10 штиль 0 10 км слабый снег 10/0
[Ac As]
-9.8 -11.0 91 -10 -10 1019.7 931.0
21 20.10 штиль 0 20 км слабый снег 10/0
[As trans]
-11.0 -12.3 90 -11 -11 1020.8 931.6 -11.1 0.3 44
00 21.10 штиль 0 20 км слабый снег 10/6 1000 м
[Sc Ac trans Cs]
-8.2 -11.5 77 -9 -8 1020.3 932.0
03 21.10 штиль 0 20 км слабый снег 10/0
[Ac trans Cs]
-6.6 -10.7 73 -7 -6 1019.2 931.6
06 21.10 штиль 0 20 км слабый снег 10/0
[Ac As]
-8.2 -10.7 82 -9 -9 1019.9 931.7
09 21.10 штиль 0 10 км слабый снег 10/0
[Ac trans Cs]
-12.2 -13.6 89 -12 -12 1021.6 932.0 -6.1 0.2
12 21.10 штиль 0 10 км слабый снег 10/0
[Ac trans Cs]
-13.1 -14.2 91 -13 -13 1021.7 931.7
15 21.10 штиль 0 10 км слабый снег 10/0
[Ac trans Cs]
-13.0 -14.4 89 -13 -13 1021.0 931.1
18 21.10 штиль 0 10 км слабый снег 10/0
[Ac As]
-11.4 -13.0 88 -12 -12 1020.1 930.8
21 21.10 СВ 1 50 км {снег} 10/0
[Ac As]
-10.3 -11.9 88 -13 -13 1019.4 930.6 -13.4 0.2 40
00 22.10 штиль 0 50 км {снег} 10/0
[As op]
-8.2 -11.2 79 -9 -8 1018.3 930.2
03 22.10 Ю 2 20 км слабый снег 9/0
[Ac As]
-4.1 -9.0 69 -8 -7 1016.0 929.4
06 22.10 С 1 50 км {снег} 10/0
[As op]
-6.3 -9.2 80 -9 -9 1016.7 929.4
09 22.10 штиль 0 10 км слабый снег 8/0
[Ac As]
-10.0 -11.6 88 -10 -10 1018.3 929.7 -3.9 0.0
12 22.10 штиль 0 50 км {снег} ясно -16.6 -18.3 87 -17 -17 1020.6 929.6
15 22.10 штиль 0 50 км 4/0
[Ac As]
-19.1 -20.5 89 -19 -19 1021.4 929.4

 

Местоположение метеостанции Талая (Магаданская область, Россия): широта 61.13 долгота 152.30 высота над уровнем моря 708 м.

В архиве по умолчанию представлена погода в Талае за последнюю неделю. Архивные данные за месяц целиком и за предыдущие месяцы, начиная с января 2011 года, Вы можете получить, выбрав интересующий диапазон дат из раскрывающегося списка и нажав кнопку "Ввод!".


*Определитесь, кто Вы:
робот инопланетянин человек

Внимание! Время в таблицах - всемирное. Для получения местного времени необходимо прибавить поправку, которая в Талае равна 11 ч.

Смотрите также архив погоды в соседних городах и на ближайших метеорологических станциях:

Погода в Мадауне (Магаданская область, Россия) (105 км)
Погода в Палатке (Магаданская область, Россия) (138 км)
Погода в Усть-Бохапче (Магаданская область, Россия) (140 км)
Погода в Усть-Омчуге (Магаданская область, Россия) (145 км)
Погода в Среднекане (Магаданская область, Россия) (147 км)
Погода в Озере Джека Лондона (Магаданская область, Россия) (182 км)
Погода в Оле (Магаданская область, Россия) (185 км)
Погода в Шелихова (Магаданская область, Россия) (195 км)
Погода в Брохово (Магаданская область, Россия) (195 км)
Погода в Магадане (Магаданская область, Россия) (197 км)

Пояснения к столбцам:

Ветер - указаны скорость ветра в м/с - средняя за 10 мин, порывы в срок и между сроками (в фигурных скобках) и направление, откуда дует ветер: С - северный, СВ - северо-восточный, В - восточный, ЮВ - юго-восточный, Ю - южный, ЮЗ - юго-западный, З - западный, СЗ - северо-западный.
Видимость - горизонтальная дальность видимости в метрах или километрах. При видимости от 1 до 10 км при отсутствии осадков обычно наблюдается дымка, при ухудшении видимости до 1 км и менее - туман. В сухую погоду видимость может ухудшаться дымом, пылью или мглою.
Явления - указаны атмосферные явления, наблюдавшиеся в срок или в последний час перед сроком; фигурными скобками обозначены явления, наблюдавшиеся между сроками (за 1-3 часа до срока); квадратными скобками обозначены град или гололедные отложения с указанием их диаметра в мм.
Облачность - указаны через наклонную черту общая и нижняя облачность в баллах и высота нижней границы облаков в метрах; квадратными скобками обозначены формы облаков: Ci - перистые, Cs - перисто-слоистые, Cc - перисто-кучевые, Ac - высококучевые, As - высокослоистые, Sc - слоисто-кучевые, Ns - слоисто-дождевые, Cu - кучевые, Cb - кучево-дождевые. Подробнее классификацию облаков см. в Атласе облаков (PDF).
T - Температура воздуха - температура, измеренная на высоте 2 м над землей.
Td - Температура точки росы - температура, при понижении до которой содержащийся в воздухе водяной пар достигнет насыщения.
f - Относительная влажность воздуха - влажноcть воздуха, измеренная на высоте 2 м над землей.
Te - Эффективная температура - температура, которую ощущает одетый по сезону человек в тени. Характеристика душности погоды. При расчете учитывается влияние влажности воздуха и скорости ветра на теплоощущения человека.
Tes - Эффективная температура на солнце - температура, которую ощущает человек, с поправкой на солнечный нагрев. Характеристика знойности погоды. Зависит от высоты солнца над горизонтом, облачности и скорости ветра. Ночью, в пасмурную погоду, а также при ветре 12 м/с и более поправка равна нулю.
P - Атмосферное давление - приведенное к уровню моря атмосферное давление.
Po - Атмосферное давление - измеренное на уровне метеостанции атмосферное давление.
Tmin - Минимальная температура - минимум температуры воздуха на высоте 2 м над землей.
Tmax - Максимальная температура - максимум температуры воздуха на высоте 2 м над землей.
R - Количество осадков - Количество выпавших осадков за период времени, мм. При наведении курсора мыши на число - период времени, за который выпало указанное количество осадков.
R24 - Количество осадков - Количество выпавших осадков за 24 часа, мм.
S - Снежный покров - Высота снежного покрова, см. При наведении курсора мыши на число - состояние снежного покрова и степень покрытия местности в баллах.